User: anonymous   Login
Location: Bandys
(35.4750°N, 81.0830°W)
Time: 06:08:57
(UTC-04:00)
Language:

DELTA 2 R/B (1) - Orbit

View from above orbital plane
View from above orbital plane
View from above satellite
View from above satellite

Ground track
Ground track

The orbit data is extracted from the following two-line orbital elements,

1 27665U 03005C   17116.87758394 +.00000012 +00000-0 +38432-4 0  9998
2 27665 039.5772 011.5218 0009707 289.1368 121.4830 14.28441963743509
Epoch (UTC): 26 April 2017 21:03:43
Eccentricity: 0.0009707
inclination: 39.5772°
perigee height: 790 km
apogee height: 804 km
right ascension of ascending node: 11.5218°
argument of perigee: 289.1368°
revolutions per day: 14.28441963
mean anomaly at epoch: 121.4830°
orbit number at epoch: 74350

The dashed part of the orbit path shows where the satellite is in the earth's shadow,  

DLR